NEWPRT Weather Reports


Display with metric or nautical units.
time (UTC)temp
F
wind
direction
speed
MPH
gust
MPH
rain 1hr
in
rain 24hr
in
rain mn
in
humidity
%
barometer
mb
20260506143627 0 0 0.0 0.0 0.00 0.00 0.00 62 1021.8
20260506143104 0 0 0.0 0.0 0.00 0.00 0.00 65 1021.7
20260506142541 0 0 0.0 0.0 0.00 0.00 0.00 65 1022.1
20260506142019 0 0 0.0 0.0 0.00 0.00 0.00 65 1022.0
20260506141455 0 0 0.0 0.0 0.00 0.00 0.00 65 1021.9
20260506140932 0 0 0.0 0.0 0.00 0.00 0.00 65 1022.0
20260506140409 0 0 0.0 0.0 0.00 0.00 0.00 65 1021.9
20260506135846 0 0 0.0 0.0 0.00 0.00 0.00 65 1021.8
20260506135325 0 0 0.0 0.0 0.00 0.00 0.00 65 1021.7
20260506134800 0 0 0.0 0.0 0.00 0.01 0.00 65 1021.4
20260506134238 0 0 0.0 0.0 0.00 0.01 0.00 65 1021.4
20260506133715 0 0 0.0 0.0 0.00 0.01 0.00 65 1021.4
20260506133151 0 0 0.0 0.0 0.00 0.01 0.00 62 1020.9
20260506132630 0 0 0.0 0.0 0.00 0.01 0.00 63 1020.8
20260506132106 0 0 0.0 0.0 0.00 0.01 0.00 63 1021.2
20260506131542 0 0 0.0 0.0 0.00 0.01 0.00 67 1021.5
20260506131020 0 0 0.0 0.0 0.00 0.01 0.00 63 1021.1
20260506130457 0 0 0.0 0.0 0.00 0.01 0.00 63 1021.0
20260506125933 0 0 0.0 0.0 0.00 0.01 0.00 63 1020.8
20260506125410 0 0 0.0 0.0 0.00 0.01 0.00 66 1021.2
20260506124847 0 0 0.0 0.0 0.00 0.01 0.00 66 1021.1
20260506124324 0 0 0.0 0.0 0.00 0.01 0.00 66 1021.0
20260506123801 0 0 0.0 0.0 0.00 0.01 0.00 66 1021.0
20260506123238 0 0 0.0 0.0 0.00 0.01 0.00 63 1020.5
20260506122715 0 0 0.0 0.0 0.00 0.01 0.00 64 1020.5
20260506122153 0 0 0.0 0.0 0.00 0.01 0.00 65 1020.3
20260506121629 0 0 0.0 0.0 0.00 0.01 0.00 67 1020.6
20260506121106 0 0 0.0 0.0 0.00 0.01 0.00 66 1020.9
20260506120544 0 0 0.0 0.0 0.00 0.01 0.00 66 1020.8
20260506120020 0 0 0.0 0.0 0.00 0.01 0.00 66 1020.6
20260506115457 0 0 0.0 0.0 0.00 0.01 0.00 66 1020.9
20260506114934 0 147 0.0 3.0 0.00 0.01 0.00 66 1021.0
20260506114413 0 49 0.0 3.0 0.00 0.01 0.00 66 1020.8
20260506113848 0 35 1.0 3.0 0.00 0.01 0.00 65 1020.9
20260506113325 0 1 0.0 2.0 0.00 0.01 0.00 66 1020.6
20260506112802 0 0 0.0 0.0 0.00 0.01 0.00 66 1020.8
20260506112239 0 0 0.0 0.0 0.00 0.01 0.00 66 1020.8
20260506111716 0 0 0.0 0.0 0.00 0.01 0.00 67 1020.6
20260506111153 0 0 0.0 0.0 0.00 0.01 0.00 67 1020.6
20260506110630 0 0 0.0 0.0 0.00 0.01 0.00 67 1020.6
20260506110107 0 0 0.0 0.0 0.00 0.01 0.00 66 1020.6
20260506105544 0 0 0.0 0.0 0.00 0.01 0.00 66 1020.4
20260506105021 0 0 0.0 0.0 0.00 0.01 0.00 67 1020.3
20260506104458 0 0 0.0 0.0 0.00 0.01 0.00 66 1020.4
20260506103935 0 0 0.0 3.0 0.00 0.01 0.00 66 1020.4
20260506103414 0 0 0.0 3.0 0.00 0.01 0.00 66 1020.2
20260506102849 0 46 0.0 3.0 0.00 0.01 0.00 66 1020.1
20260506102326 0 0 0.0 0.0 0.00 0.01 0.00 67 1020.2
20260506101803 0 0 0.0 0.0 0.00 0.01 0.00 68 1020.3
20260506101639 0 0 0.0 0.0 0.00 0.01 0.00 69 1020.2
20260506101240 0 0 0.0 0.0 0.00 0.01 0.00 69 1020.2
20260506100717 0 0 0.0 0.0 0.00 0.01 0.00 69 1020.1
20260506100154 0 0 0.0 0.0 0.00 0.01 0.00 68 1020.1
20260506095631 0 0 0.0 0.0 0.00 0.01 0.00 68 1020.1
20260506095108 0 0 0.0 0.0 0.00 0.01 0.00 68 1020.0
20260506094545 0 0 0.0 3.0 0.00 0.01 0.00 69 1019.9
20260506094022 0 0 0.0 3.0 0.00 0.01 0.00 69 1019.9
20260506093459 0 142 0.0 3.0 0.00 0.01 0.00 68 1020.0
20260506092936 0 135 1.0 3.0 0.00 0.01 0.00 66 1019.7
20260506092413 0 0 0.0 0.0 0.00 0.01 0.00 67 1019.6
20260506091849 0 0 0.0 0.0 0.00 0.01 0.00 67 1019.6
20260506091326 0 0 0.0 0.0 0.00 0.01 0.00 66 1019.7
20260506090803 0 0 0.0 0.0 0.00 0.01 0.00 66 1019.6
20260506090240 0 0 0.0 0.0 0.00 0.01 0.00 67 1019.6
20260506085718 0 0 0.0 0.0 0.00 0.01 0.00 67 1019.6
20260506085155 0 0 0.0 2.0 0.00 0.01 0.00 67 1019.6
20260506084631 0 0 0.0 2.0 0.00 0.02 0.00 66 1019.6
20260506084108 0 149 0.0 4.0 0.00 0.02 0.00 67 1019.6
20260506083547 0 141 0.0 4.0 0.00 0.02 0.00 65 1019.4
20260506083022 0 148 0.0 4.0 0.00 0.02 0.00 65 1019.3
20260506082459 0 0 0.0 2.0 0.00 0.02 0.00 67 1019.4
20260506081937 0 152 0.0 2.0 0.00 0.02 0.00 67 1019.3
20260506081413 0 0 0.0 0.0 0.00 0.02 0.00 67 1019.3
20260506080851 0 0 0.0 0.0 0.00 0.02 0.00 67 1019.4
20260506080327 0 0 0.0 0.0 0.00 0.02 0.00 67 1019.4
20260506073109 0 0 0.0 0.0 0.00 0.02 0.00 67 1018.9
20260506072547 0 0 0.0 0.0 0.00 0.02 0.00 67 1019.1
20260506072023 0 0 0.0 0.0 0.00 0.02 0.00 67 1018.8
20260506071500 0 0 0.0 0.0 0.00 0.02 0.00 67 1018.7
20260506070939 0 0 0.0 0.0 0.00 0.02 0.00 67 1018.7
20260506070415 0 0 0.0 0.0 0.00 0.02 0.00 67 1018.7
20260506062204 0 0 0.0 0.0 0.00 0.03 0.00 69 1018.4
20260506062110 0 0 0.0 0.0 0.00 0.03 0.00 69 1018.4
20260506061548 0 0 0.0 0.0 0.00 0.03 0.00 68 1018.6
20260506061024 0 0 0.0 0.0 0.00 0.03 0.00 68 1018.6
20260506060501 0 0 0.0 0.0 0.00 0.03 0.00 68 1018.6
20260506051112 0 0 0.0 0.0 0.00 0.04 0.00 67 1018.5
20260506050548 0 0 0.0 0.0 0.00 0.04 0.00 67 1018.5
20260506044939 0 0 0.0 0.0 0.00 0.04 0.00 68 1018.3
20260506044416 0 0 0.0 0.0 0.00 0.04 0.00 68 1018.4
20260506043853 0 0 0.0 0.0 0.00 0.04 0.00 67 1018.3
20260506043330 0 0 0.0 0.0 0.00 0.04 0.00 68 1018.1
20260506042807 0 0 0.0 0.0 0.00 0.04 0.00 68 1018.0
20260506042244 0 0 0.0 1.0 0.00 0.04 0.00 69 1018.0
20260506041721 0 233 0.0 1.0 0.00 0.04 0.00 69 1017.9
20260506041158 0 0 0.0 0.0 0.00 0.04 0.00 66 1017.5
20260506040635 0 67 0.0 0.0 0.00 0.04 0.00 66 1017.8
20260506040112 0 0 0.0 0.0 0.00 0.04 0.00 69 1017.6
20260506035550 0 0 0.0 0.0 0.00 0.04 0.00 69 1017.6
20260506035026 0 0 0.0 0.0 0.00 0.04 0.00 66 1017.3
20260506034503 0 0 0.0 0.0 0.00 0.04 0.00 67 1017.4
20260506033941 0 0 0.0 0.0 0.00 0.04 0.00 68 1017.4
20260506033417 0 0 0.0 3.0 0.00 0.04 0.00 68 1017.5
20260506032856 0 0 0.0 3.0 0.00 0.04 0.00 60 1017.3
20260506032331 0 75 0.0 3.0 0.00 0.04 0.00 60 1017.0
20260506031808 0 117 0.0 4.0 0.00 0.04 0.00 58 1017.3
20260506031245 0 110 1.0 4.0 0.00 0.04 0.00 69 1017.3
20260506030722 0 98 0.0 4.0 0.00 0.04 0.00 69 1017.4
20260506030159 0 0 1.0 1.0 0.00 0.04 0.00 66 1017.0
20260506025636 0 0 0.0 1.0 0.00 0.04 0.00 70 1017.4
20260506025113 0 106 0.0 4.0 0.00 0.04 0.00 69 1017.3
20260506024550 0 0 0.0 4.0 0.00 0.04 0.00 67 1017.4
20260506024027 0 0 0.0 4.0 0.00 0.04 0.00 67 1016.9
20260506023504 0 145 0.0 4.0 0.00 0.04 0.00 68 1017.2
20260506022940 0 144 1.0 4.0 0.00 0.04 0.00 68 1017.3
20260506022418 0 147 2.0 4.0 0.00 0.04 0.00 67 1017.3
20260506021854 0 144 1.0 4.0 0.00 0.04 0.00 68 1017.2
20260506021331 0 0 0.0 4.0 0.00 0.04 0.00 66 1017.1
20260506020808 0 147 0.0 4.0 0.00 0.04 0.00 66 1017.2
20260506020245 0 145 2.0 4.0 0.00 0.04 0.00 65 1017.1
20260506015722 0 124 1.0 4.0 0.00 0.04 0.00 65 1017.1
20260506015159 0 106 0.0 5.0 0.00 0.04 0.00 65 1017.0
20260506014636 0 79 1.0 5.0 0.00 0.04 0.00 64 1017.0
20260506014114 0 99 2.0 5.0 0.00 0.04 0.00 65 1017.1
20260506013550 0 96 0.0 7.0 0.00 0.04 0.00 66 1017.2
20260506013028 0 144 1.0 7.0 0.00 0.04 0.00 64 1016.9
20260506012504 0 79 2.0 7.0 0.00 0.04 0.00 64 1017.1
20260506011941 0 88 2.0 5.0 0.00 0.04 0.00 64 1017.0
20260506011421 0 85 2.0 5.0 0.00 0.04 0.00 64 1017.1
20260506010855 0 112 0.0 4.0 0.00 0.04 0.00 64 1017.1
20260506010332 0 100 1.0 5.0 0.00 0.04 0.00 64 1016.9
20260506005809 0 79 0.0 5.0 0.00 0.04 0.00 64 1017.0
20260506005246 0 98 1.0 5.0 0.00 0.04 0.00 63 1017.0
20260506004723 0 140 3.0 5.0 0.00 0.04 0.00 63 1017.1
20260506004200 0 99 2.0 6.0 0.00 0.04 0.00 60 1017.0
20260506003638 0 92 2.0 6.0 0.00 0.04 0.00 59 1017.1
20260506003114 0 102 3.0 7.0 0.00 0.04 0.00 62 1017.1
20260506002552 0 103 0.0 7.0 0.00 0.04 0.00 62 1017.3
20260506002029 0 114 2.0 7.0 0.00 0.04 0.00 59 1017.1
20260506001505 0 123 3.0 6.0 0.00 0.04 0.00 60 1017.0
20260506000942 0 105 4.0 6.0 0.00 0.04 0.00 59 1017.0
20260506000419 0 114 1.0 6.0 0.00 0.04 0.00 60 1017.2
20260505235856 0 100 3.0 6.0 0.00 0.04 0.00 59 1017.0
20260505235333 0 95 0.0 5.0 0.00 0.04 0.00 60 1017.1
20260505234810 0 102 4.0 7.0 0.00 0.04 0.00 60 1017.0
20260505234247 0 121 1.0 7.0 0.00 0.04 0.04 60 1017.2
20260505233724 0 113 4.0 7.0 0.00 0.04 0.04 59 1017.3
20260505233201 0 113 2.0 7.0 0.00 0.04 0.04 59 1017.3
20260505232638 0 114 2.0 7.0 0.00 0.04 0.04 58 1017.3
20260505232116 0 110 3.0 5.0 0.00 0.04 0.04 58 1017.4
20260505231553 0 126 2.0 5.0 0.00 0.04 0.04 59 1017.6
20260505231029 0 84 2.0 6.0 0.00 0.04 0.04 59 1017.4
20260505230506 0 114 2.0 6.0 0.00 0.04 0.04 57 1017.4
20260505225943 0 112 4.0 6.0 0.00 0.04 0.04 58 1017.4
20260505225420 0 149 2.0 5.0 0.00 0.04 0.04 58 1017.6
20260505224857 0 134 2.0 5.0 0.00 0.04 0.04 58 1017.4
20260505224334 0 117 1.0 5.0 0.00 0.04 0.04 59 1017.4
20260505223811 0 148 2.0 5.0 0.00 0.04 0.04 59 1017.4
20260505223248 0 163 1.0 3.0 0.00 0.04 0.04 59 1017.8
20260505222725 0 130 1.0 4.0 0.00 0.04 0.04 59 1017.8
20260505222202 0 22 2.0 4.0 0.00 0.04 0.04 58 1017.6
20260505221639 0 86 1.0 4.0 0.00 0.04 0.04 57 1017.6
20260505221116 0 334 1.0 3.0 0.00 0.04 0.04 58 1017.8
20260505220553 0 152 0.0 3.0 0.00 0.04 0.04 58 1017.9
20260505220030 0 126 0.0 4.0 0.00 0.04 0.04 60 1017.8
20260505215507 0 137 0.0 4.0 0.00 0.04 0.04 61 1017.6
20260505214944 0 120 1.0 4.0 0.00 0.04 0.04 62 1017.6
20260505214421 0 131 0.0 4.0 0.00 0.04 0.04 63 1017.9
20260505213858 0 128 0.0 4.0 0.00 0.04 0.04 64 1017.9
20260505213335 0 18 0.0 4.0 0.00 0.04 0.04 63 1017.9
20260505212812 0 131 1.0 4.0 0.00 0.04 0.04 63 1017.9
20260505212249 0 147 2.0 2.0 0.00 0.04 0.04 58 1017.9
20260505211726 0 37 1.0 4.0 0.00 0.04 0.04 64 1018.0
20260505211203 0 26 0.0 4.0 0.00 0.04 0.04 65 1017.8
20260505210640 0 23 1.0 4.0 0.00 0.04 0.04 65 1017.9
20260505210117 0 21 0.0 4.0 0.00 0.04 0.04 66 1018.0
20260505205554 0 42 0.0 4.0 0.00 0.04 0.04 65 1018.1
20260505205031 0 0 1.0 4.0 0.00 0.04 0.04 65 1017.9
20260505204508 0 57 0.0 4.0 0.00 0.04 0.04 67 1018.0
20260505203945 0 49 0.0 4.0 0.00 0.04 0.04 65 1017.5
20260505203422 0 35 0.0 4.0 0.00 0.04 0.04 67 1017.9
20260505202859 0 0 0.0 3.0 0.00 0.04 0.04 66 1017.9
20260505202336 0 47 0.0 3.0 0.00 0.04 0.04 66 1017.8
20260505201813 0 0 0.0 0.0 0.00 0.04 0.04 69 1017.6
20260505201250 0 0 0.0 0.0 0.00 0.04 0.04 69 1018.1
20260505200727 0 350 0.0 4.0 0.00 0.04 0.04 66 1018.2
20260505200204 0 324 0.0 4.0 0.00 0.04 0.04 68 1018.1
20260505195641 0 0 0.0 0.0 0.00 0.04 0.04 69 1018.1
20260505195118 0 0 0.0 3.0 0.00 0.04 0.04 69 1018.2
20260505194555 0 22 0.0 3.0 0.00 0.04 0.04 69 1018.3
20260505194034 0 50 1.0 3.0 0.00 0.04 0.04 69 1018.1
20260505193509 0 124 0.0 2.0 0.00 0.04 0.04 69 1017.8
20260505192946 0 0 0.0 0.0 0.00 0.04 0.04 71 1018.2
20260505192423 0 0 0.0 0.0 0.00 0.04 0.04 72 1018.3
20260505191901 0 0 0.0 0.0 0.00 0.04 0.04 73 1017.9
20260505191337 0 0 0.0 0.0 0.00 0.04 0.04 69 1017.5
20260505190814 0 0 0.0 0.0 0.00 0.04 0.04 72 1017.8
20260505190251 0 0 0.0 0.0 0.00 0.04 0.04 74 1018.0
20260505185727 0 0 0.0 0.0 0.00 0.04 0.04 75 1017.4
20260505185205 0 0 0.0 0.0 0.00 0.04 0.04 76 1017.8
20260505184641 0 0 0.0 0.0 0.00 0.04 0.04 76 1017.6
20260505184119 0 0 0.0 0.0 0.00 0.04 0.04 75 1017.5
20260505183555 0 252 0.0 0.0 0.00 0.04 0.04 78 1017.8
20260505183033 0 0 0.0 2.0 0.00 0.04 0.04 76 1017.6
20260505182510 0 0 0.0 2.0 0.00 0.04 0.04 77 1017.2
20260505181947 0 82 0.0 2.0 0.00 0.04 0.04 79 1017.5
20260505181425 0 0 0.0 0.0 0.00 0.04 0.04 80 1017.5
20260505180900 0 0 0.0 0.0 0.00 0.04 0.04 78 1017.1
20260505180337 0 0 0.0 0.0 0.00 0.04 0.04 81 1017.2
20260505175814 0 0 0.0 0.0 0.00 0.04 0.04 81 1017.3
20260505175251 0 0 0.0 0.0 0.00 0.04 0.04 81 1017.1
20260505174729 0 0 0.0 0.0 0.00 0.04 0.04 82 1017.3
20260505174205 0 0 0.0 0.0 0.00 0.04 0.04 82 1017.1
20260505173644 0 0 0.0 0.0 0.00 0.04 0.04 82 1017.2
20260505173119 0 0 0.0 0.0 0.00 0.04 0.04 81 1016.8
20260505172556 0 0 0.0 2.0 0.00 0.04 0.04 81 1016.9
20260505172033 0 0 0.0 2.0 0.00 0.04 0.04 83 1016.6
20260505171511 0 47 0.0 2.0 0.00 0.04 0.04 84 1017.0
20260505170947 0 0 0.0 0.0 0.00 0.04 0.04 84 1017.0
20260505170425 0 0 0.0 0.0 0.00 0.04 0.04 83 1016.7
20260505165901 0 0 0.0 0.0 0.00 0.04 0.04 79 1016.5
20260505165338 0 0 0.0 0.0 0.00 0.04 0.04 79 1016.7
20260505164815 0 0 0.0 0.0 0.00 0.04 0.04 80 1016.8
20260505164252 0 0 0.0 0.0 0.00 0.05 0.04 80 1016.7
20260505163729 0 0 0.0 0.0 0.00 0.05 0.04 78 1016.8
20260505163206 0 0 0.0 0.0 0.00 0.05 0.04 77 1016.8
20260505162643 0 161 0.0 0.0 0.00 0.05 0.04 78 1016.8
20260505162120 0 0 0.0 0.0 0.00 0.05 0.04 77 1016.6
20260505161557 0 0 0.0 0.0 0.00 0.05 0.04 76 1016.7
20260505161034 0 0 0.0 0.0 0.00 0.05 0.04 77 1016.6
20260505160512 0 0 0.0 0.0 0.00 0.05 0.04 77 1016.7
20260505153254 0 0 0.0 0.0 0.00 0.05 0.04 82 1016.5
20260505152730 0 0 0.0 0.0 0.00 0.05 0.04 84 1016.6
20260505152208 0 0 0.0 0.0 0.00 0.05 0.04 85 1016.7
20260505151644 0 0 0.0 0.0 0.00 0.05 0.04 86 1016.8
20260505151121 0 0 0.0 2.0 0.00 0.05 0.04 84 1016.6
20260505150558 0 0 0.0 2.0 0.00 0.05 0.04 84 1016.4